Prairie Du Chien, WI

11:22 PM CST on December 11, 2019 (GMT -0600)
Prairie Du Chien Municipal

Weather History for KPDC - November, 2019

Change the Weather History Date:

Friday, November 15, 2019

  Actual Average Record
Temperature  
Mean Temperature 28 °F -  
Max Temperature 41 °F 47 °F 70 °F (1990)
Min Temperature 15 °F 28 °F 5 °F (1959)
Degree Days  
Heating Degree Days 37    
Moisture  
Dew Point 22 °F    
Average Humidity 81    
Maximum Humidity 94    
Minimum Humidity 59    
Precipitation  
Precipitation 0.13 in - - ()
Sea Level Pressure  
Sea Level Pressure 30.34 in    
Wind  
Wind Speed 0 mph (East)    
Max Wind Speed 4 mph    
Max Gust Speed -    
Visibility 9 miles    
Events      
Averages and records for this station are not official NWS values.
T = Trace of Precipitation, MM = Missing Value Source: NWS Daily Summary

Daily Weather History Graph

Daily Weather History Graph

Search for Another Location

Airport or City:

Astronomy

Nov. 15, 2019 Rise Set
Actual Time 6:56 AM CST 4:40 PM CST
Civil Twilight 6:26 AM CST 5:11 PM CST
Nautical Twilight 5:51 AM CST 5:45 PM CST
Astronomical Twilight 5:18 AM CST 6:19 PM CST
Moon 7:13 PM CST (11/15) 9:56 AM CST (11/15)
Length of Visible Light 10h 45m
Length of Day
9h 44m
Waning Gibbous, 90% of the Moon is Illuminated
Nov 15
Waning Gibbous
Nov 19
Last Quarter
Nov 26
New
Dec 4
First Quarter
Dec 11
Full

Hourly Weather History & Observations

Time (CST) Temp. Windchill Dew Point Humidity Pressure Visibility Wind Dir Wind Speed Gust Speed Precip Events Conditions
12:15 AM 20.8 °F - 16.2 °F 82% 30.29 in 10.0 mi Calm Calm - N/A   Clear
12:35 AM 23.0 °F - 17.4 °F 79% 30.29 in 10.0 mi Calm Calm - N/A   Clear
12:55 AM 20.7 °F - 16.2 °F 83% 30.29 in 10.0 mi Calm Calm - N/A   Clear
1:35 AM 19.2 °F - 16.7 °F 90% 30.28 in 10.0 mi Calm Calm - N/A   Clear
1:55 AM 19.0 °F - 16.5 °F 90% 30.29 in 10.0 mi Calm Calm - N/A   Clear
2:15 AM 19.4 °F - 16.5 °F 89% 30.29 in 10.0 mi Calm Calm - N/A   Clear
2:55 AM 16.9 °F - 14.5 °F 91% 30.29 in 10.0 mi Calm Calm - N/A   Clear
3:15 AM 18.5 °F - 16.2 °F 91% 30.29 in 10.0 mi Calm Calm - N/A   Clear
3:35 AM 16.9 °F - 14.5 °F 91% 30.29 in 7.0 mi Calm Calm - N/A   Clear
3:55 AM 17.4 °F - 15.3 °F 91% 30.30 in 7.0 mi Calm Calm - N/A   Clear
4:15 AM 16.5 °F - 14.7 °F 93% 30.30 in 7.0 mi Calm Calm - N/A   Clear
4:35 AM 16.0 °F - 13.8 °F 91% 30.31 in 7.0 mi Calm Calm - N/A   Clear
4:55 AM 16.3 °F - 14.2 °F 91% 30.31 in 7.0 mi Calm Calm - N/A   Clear
5:15 AM 16.0 °F - 13.8 °F 91% 30.31 in 7.0 mi Calm Calm - N/A   Clear
5:35 AM 15.8 °F - 13.6 °F 91% 30.32 in 7.0 mi Calm Calm - N/A   Clear
5:55 AM 15.6 °F - 13.5 °F 91% 30.32 in 7.0 mi Calm Calm - N/A   Clear
6:15 AM 16.9 °F - 15.1 °F 93% 30.32 in 7.0 mi Calm Calm - N/A   Clear
6:35 AM 15.8 °F - 13.3 °F 90% 30.32 in 7.0 mi Calm Calm - N/A   Clear
6:55 AM 15.6 °F - 13.5 °F 91% 30.33 in 7.0 mi Calm Calm - N/A   Clear
7:15 AM 15.1 °F - 12.7 °F 90% 30.33 in 7.0 mi Calm Calm - N/A   Clear
7:35 AM 16.9 °F - 14.2 °F 89% 30.34 in 7.0 mi Calm Calm - N/A   Clear
7:55 AM 17.4 °F - 14.5 °F 88% 30.34 in 7.0 mi Calm Calm - N/A   Clear
8:15 AM 20.1 °F - 17.2 °F 89% 30.35 in 7.0 mi Calm Calm - N/A   Clear
8:35 AM 23.0 °F - 19.6 °F 87% 30.36 in 7.0 mi Calm Calm - N/A   Clear
8:55 AM 25.0 °F - 19.9 °F 81% 30.37 in 10.0 mi Calm Calm - N/A   Clear
9:15 AM 25.3 °F - 20.1 °F 81% 30.37 in 10.0 mi Calm Calm - N/A   Clear
9:35 AM 27.3 °F - 21.0 °F 77% 30.37 in 10.0 mi Calm Calm - N/A   Clear
9:55 AM 28.9 °F - 21.2 °F 73% 30.37 in 10.0 mi Calm Calm - N/A   Clear
10:15 AM 30.6 °F - 21.2 °F 68% 30.37 in 10.0 mi Calm Calm - N/A   Clear
10:55 AM 33.1 °F - 23.0 °F 66% 30.37 in 10.0 mi Calm Calm - N/A   Clear
11:15 AM 32.9 °F - 23.2 °F 67% 30.37 in 10.0 mi Calm Calm - 0.01 in   Clear
11:35 AM 34.2 °F - 23.7 °F 66% 30.36 in 10.0 mi Calm Calm - 0.03 in   Clear
11:55 AM 36.1 °F - 24.8 °F 63% 30.36 in 10.0 mi Calm Calm - 0.07 in   Clear
12:55 PM 38.3 °F - 25.7 °F 61% 30.35 in 10.0 mi Calm Calm - 0.06 in   Clear
1:15 PM 39.4 °F - 27.7 °F 63% 30.34 in 10.0 mi Calm Calm - N/A   Clear
1:35 PM 41.0 °F - 27.9 °F 60% 30.34 in 10.0 mi Calm Calm - N/A   Clear
1:55 PM 40.6 °F - 27.3 °F 59% 30.34 in 10.0 mi Calm Calm - N/A   Clear
2:15 PM 41.2 °F - 28.2 °F 60% 30.34 in 10.0 mi Calm Calm - N/A   Clear
2:35 PM 41.0 °F - 27.5 °F 59% 30.34 in 10.0 mi Calm Calm - N/A   Clear
2:55 PM 41.2 °F - 28.0 °F 60% 30.34 in 10.0 mi Calm Calm - N/A   Clear
3:15 PM 40.8 °F - 28.4 °F 61% 30.34 in 10.0 mi Calm Calm - N/A   Clear
3:35 PM 40.1 °F - 27.7 °F 61% 30.35 in 10.0 mi Calm Calm - N/A   Clear
3:55 PM 40.6 °F - 27.7 °F 60% 30.35 in 10.0 mi Calm Calm - N/A   Clear
4:15 PM 40.1 °F - 27.5 °F 61% 30.35 in 10.0 mi Calm Calm - N/A   Clear
4:35 PM 39.2 °F - 27.5 °F 63% 30.34 in 10.0 mi Calm Calm - N/A   Clear
4:55 PM 36.0 °F - 28.4 °F 74% 30.35 in 10.0 mi Calm Calm - N/A   Clear
5:15 PM 34.5 °F - 28.0 °F 77% 30.35 in 10.0 mi Calm Calm - N/A   Clear
5:35 PM 33.3 °F 30.2 °F 28.0 °F 81% 30.35 in 10.0 mi East 3.5 mph - N/A   Clear
5:55 PM 33.1 °F - 27.9 °F 81% 30.35 in 10.0 mi Calm Calm - N/A   Clear
6:15 PM 32.4 °F - 27.9 °F 83% 30.36 in 10.0 mi Calm Calm - N/A   Clear
6:35 PM 32.0 °F - 27.7 °F 84% 30.36 in 10.0 mi Calm Calm - N/A   Clear
6:55 PM 31.8 °F - 27.5 °F 84% 30.36 in 10.0 mi Calm Calm - N/A   Clear
7:15 PM 31.6 °F - 27.9 °F 86% 30.36 in 10.0 mi Calm Calm - N/A   Clear
7:35 PM 31.6 °F - 27.1 °F 83% 30.37 in 10.0 mi Calm Calm - N/A   Clear
7:55 PM 30.0 °F - 27.9 °F 92% 30.37 in 7.0 mi Calm Calm - N/A   Clear
8:15 PM 30.7 °F - 27.9 °F 89% 30.37 in 7.0 mi Calm Calm - N/A   Clear
8:35 PM 29.7 °F - 27.0 °F 90% 30.37 in 7.0 mi Calm Calm - N/A   Clear
8:55 PM 29.8 °F - 27.5 °F 91% 30.37 in 7.0 mi Calm Calm - N/A   Clear
9:15 PM 30.2 °F - 27.3 °F 89% 30.38 in 7.0 mi Calm Calm - N/A   Clear
9:35 PM 30.4 °F - 27.7 °F 90% 30.38 in 10.0 mi Calm Calm - N/A   Clear
9:55 PM 29.5 °F 25.9 °F 26.6 °F 89% 30.39 in 10.0 mi East 3.5 mph - N/A   Clear
10:15 PM 29.1 °F - 27.1 °F 92% 30.39 in 7.0 mi Calm Calm - N/A   Clear
10:35 PM 29.8 °F - 27.3 °F 90% 30.39 in 7.0 mi Calm Calm - N/A   Clear
10:55 PM 28.9 °F - 27.3 °F 94% 30.38 in 5.0 mi Calm Calm - N/A   Clear
11:15 PM 29.1 °F 25.4 °F 27.3 °F 93% 30.38 in 7.0 mi ESE 3.5 mph - N/A   Clear
11:35 PM 29.8 °F 26.3 °F 27.1 °F 90% 30.38 in 10.0 mi ESE 3.5 mph - N/A   Clear
11:55 PM 30.0 °F - 27.1 °F 89% 30.38 in 10.0 mi Calm Calm - N/A   Clear